Regional Weather Roundup
Issued by NWS Midland/Odessa, TX

Skip options and go directly to product.
Home | Oldest Version | Previous Version | Current Version | All | Text Only | Save Text | Print | Product List | Glossary On

Skip product version selection by date and time.   
253
ASUS44 KMAF 070810
RWRMAF
MIDLAND AREA WEATHER ROUNDUP
NATIONAL WEATHER SERVICE MIDLAND TX
300 AM CDT TUE JUL 07 2015

...IN SOUTHWEST TEXAS AND SOUTHEAST NEW MEXICO...

CITY           SKY/WX    TMP DP  RH WIND       PRES   REMARKS
ALPINE         CLOUDY    70  63  78 N6        30.16R
ANDREWS        LGT RAIN  71  69  95 CALM      30.00S
ARTESIA        RAIN      68  68 100 N17G25    30.08R
BIG SPRING     CLOUDY    79  70  74 SE5       30.01R
CARLSBAD       CLOUDY    72  68  87 N16       30.04R
DRYDEN           N/A     78  68  71 MISG      29.93F
FORT STOCKTON  CLOUDY    74  65  73 SW15      29.98S
GUAD PASS      CLOUDY    66  63  90 E15       30.16R
HOBBS          LGT RAIN  68  68 100 N15       30.06F
MARFA          PTCLDY   N/A N/A N/A N10       30.14R
MIDLAND AIRPK  CLOUDY    79  66  65 CALM      29.99S
MIDLAND INTL   CLOUDY    79  64  60 S5        29.97F
ODESSA         CLOUDY    75  66  73 CALM      29.99F
PECOS          MOCLDY    76  65  69 NW9       29.96R
PRESIDIO       FAIR      79  64  61 E3        29.98F
SEMINOLE       CLOUDY    71  69  95 N6        30.04R
SNYDER         RAIN      71  69  94 NE13      30.00F
WINK           MOCLDY    74  68  81 N12       29.95S
$$
...OTHER STATIONS IN TEXAS...

CITY           SKY/WX    TMP DP  RH WIND       PRES   REMARKS
ABILENE        TSTM      78  69  73 S7        29.97R
AMARILLO       LGT RAIN  65  62  90 NE15G23   30.10S
AUSTIN         CLOUDY    78  76  93 S14       29.98F
BROWNSVILLE    CLEAR     80  77  90 S7        29.99R
CORPUS CHRISTI PTCLDY    81  78  91 S13       29.98F
DALLAS FTW     CLOUDY    81  72  74 S17G26    29.93S
DEL RIO        MOCLDY    81  70  69 SE14G22   29.90F
EL PASO        PTCLDY    78  61  55 NE7       30.03R
HOUSTON INT    MOCLDY    80  77  90 S5        30.03S
LUBBOCK        HVY RAIN  68  68 100 NE15      30.04F FOG
SAN ANGELO     LGT RAIN  80  69  69 SE10      29.94S
SAN ANTONIO    CLOUDY    79  74  84 SE15      29.99F
WACO           CLOUDY    79  73  82 S17       29.97F
WICHITA FALLS  NOT AVBL
$$
...OTHER LOCATIONS IN NEW MEXICO...

CITY           SKY/WX    TMP DP  RH WIND       PRES   REMARKS
ALAMAGORDO     MOCLDY    73  63  68 SE7       30.05R
ALBUQUERQUE    TSTM      62  59  90 VRB6      30.26R FOG
CANNON AFB     MOCLDY    64  62  92 NE17      30.14R
CLOVIS         CLOUDY    63  61  94 NE16G23     N/A
HOLLOMAN AFB   MOCLDY    77  59  52 S13G26    30.02R
ROSWELL        LGT RAIN  68  65  90 NE15      30.08F
RUIDOSO        LGT RAIN  57  57 100 SE5       30.32R
SANTA FE       CLOUDY    60  57  89 CALM      30.27R
TRUTH OR CONSE PTCLDY    69  60  73 N18       30.12S
TUCUMCARI      CLOUDY    66  61  84 NE10      30.16S
$$

USA.gov is the U.S. government's official web portal to all federal, state and local government web resources and services.